Regional Weather Roundup
Issued by NWS Jackson, KY

Home | Current Version | Previous Version | Graphics & Text | Print | Product List | Glossary On
Versions: 1 2 3 4 5 6 7 8 9 10 11 12 13 14 15 16 17 18 19 20 21 22 23 24 25 26 27 28
000
ASUS43 KJKL 250910
RWRJKL

EAST KENTUCKY HOURLY WEATHER ROUNDUP
NATIONAL WEATHER SERVICE JACKSON KY
500 AM EDT MON SEP 25 2017

NOTE: "FAIR" INDICATES FEW OR NO CLOUDS BELOW 12,000 FEET WITH
NO SIGNIFICANT WEATHER AND/OR OBSTRUCTIONS TO VISIBILITY.

* THESE REPORTS ARE NOT UNDER NWS QUALITY CONTROL AND MAY NOT
  REPORT WEATHER SUCH AS PRECIPITATION AND FOG.

KYZ079-080-083-085-087-088-110-112-115-119-120-251000
...EASTERN KENTUCKY...

CITY           SKY/WX    TMP DP  RH WIND       PRES   REMARKS
JACKSON        PTCLDY    67  61  81 E3        30.06R
LONDON         CLEAR     62  61  96 CALM      30.05R
SOMERSET*      CLEAR     61  61 100 CALM      30.05S FOG
MONTICELLO*    PTCLDY    59  57  94 W9        30.06S FOG
WILLIAMSBURG*  CLOUDY    61  61 100 CALM      30.05S VSB<1/4
MIDDLESBORO*   FOG       60  60 100 CALM      30.08R VSB 1/4
HARLAN APT*    CLOUDY    63  61  94 CALM      30.08S VSB 1/2
PIKE CO APT*     N/A     65  65 100 SE3       30.08R
BIG SANDY APT* MOSUNNY   65  64  96 CALM      30.06S
MOREHEAD APT*  MOSUNNY   63  61  94 CALM      30.06R
$$

KYZ035-036-041-042-044-050-067-078-099-251000
...CENTRAL KENTUCKY...

CITY           SKY/WX    TMP DP  RH WIND       PRES   REMARKS
MT STERLING*   CLEAR     59  59 100 CALM      30.06R
FLEMING/MASON* CLEAR     63  61  95 E3        30.05S
DANVILLE*      CLEAR     61  61 100 CALM      30.05S
LEXINGTON      CLEAR     64  60  87 CALM      30.04S
FRANKFORT      CLEAR     63  59  87 CALM      30.02S
LOUISVILLE     MOCLDY    72  63  73 E3        30.01S
LEBANON*         N/A     64  63  94 CALM      30.04R
GLASGOW*       FOG      N/A N/A N/A CALM      30.02S VSB 1/2
BOWLING GREEN  PTCLDY    67  66  97 CALM      30.02R FOG
$$

KYZ091>093-OHZ055-061-077-WVZ005-015-034-035-042-251000
...SOUTHERN OHIO/WEST VIRGINIA...

CITY           SKY/WX    TMP DP  RH WIND       PRES   REMARKS
COVINGTON      PTCLDY    67  62  84 N3        30.04R
COLUMBUS       PTCLDY    67  63  87 CALM      30.04S
DAYTON         PTCLDY    65  58  78 CALM      30.06S
WILMINGTON     CLOUDY    62  60  93 CALM      30.04S
HUNTINGTON     PTCLDY    62  60  93 CALM      30.03S
CHARLESTON     PTCLDY    64  61  90 CALM      30.05R
PINEVILLE*     MOCLDY    58  57  95 MISG      30.15R
BECKLEY        MOCLDY    62  57  83 CALM      30.12S
BLUEFIELD      PTCLDY    61  55  81 E3        30.15R
LOGAN CO APT*    N/A     64  63  94 CALM      30.07S
$$

VAZ002-007-008-TNZ017-027-036-066-071-251000
...SOUTHWEST VIRGINIA/EAST TENNESSEE...

CITY           SKY/WX    TMP DP  RH WIND       PRES   REMARKS
WISE*          MOCLDY    64  54  68 CALM      30.14S
JONESVILLE*      N/A     59  57  94 CALM      30.09S
ABINGDON*      PTCLDY    63  57  81 E3        30.10S
BRISTOL        MOCLDY    58  58 100 CALM      30.08R
MORRISTOWN*    SUNNY     66  57  72 NE3       30.04S
SEVIERVILLE*   SUNNY     61  57  88 CALM      30.03S
KNOXVILLE      CLOUDY    65  61  87 N3        30.03R
LAFOLLETTE*    SUNNY     61  61 100 CALM      30.08S FOG
OAK RIDGE      CLOUDY    64  62  93 CALM      30.06R
CROSSVILLE     CLEAR     60  59  96 CALM      30.08R FOG
NASHVILLE      MOCLDY    69  66  90 CALM      30.01S
$$

...KEY TO REMARKS...
VSB - VISIBILITY IN MILES
WCI - WIND CHILL INDEX
HX  - HEAT INDEX

$$




USA.gov is the U.S. government's official web portal to all federal, state and local government web resources and services.